Погода в Червленной-Узловой

Россия / Чеченская Республика     43°26′51″N   45°58′39″E
темп.,
°C
ветер,
м/с
пор.,
м/с
влажн.,
%
обл.,
%
осадки,
мм/ч
давл.,
гПа
погр.,
м
15 апреля, чт
чт1500:00+10з4884100 0.0 1017186
03:00+10зюз497925 0.0 1017245
06:00+9зюз48789 0.0 1018191
09:00+16з68514 0.0 1018924
12:00+20зсз56374 0.0 10161586
15:00+22сз5528100 0.0 10151890
18:00+18ссз3340100 0.0 1016159
21:00+15ссз014885 0.0 101712
16 апреля, пт
пт1600:00+13зюз115276 0.0 101711
03:00+12з1157100 0.0 101810
06:00+12зюз11605 0.0 101912
09:00+18всв124427 0.0 1019549
12:00+22всв44345 0.0 10171593
15:00+23в55343 0.0 10161936
18:00+18вюв610450 0.0 1017395
21:00+12в37615 0.0 1017153
17 апреля, сб
сб1700:00+11в016320 0.0 101816
03:00+11зюз116577 0.0 101711
06:00+11з3566100 0.0 101799
09:00+16зсз7949100 0.0 1020859
12:00+18сз6655100 0.0 10211577
15:00+17ссз555884 0.1 10211250
18:00+16сз4660100 0.0 1022433
21:00+13зсз5772100 0.0 1023413
18 апреля, вс
вс1800:00+12зсз2277100 0.0 1022247
03:00+12ссз1179100 0.0 102283
06:00+12всв1179100 0.0 1021111
09:00+15в3466100 0.0 1020688
12:00+19всв3353100 0.0 10181292
15:00+19в445399 0.0 10171471
18:00+15всв5768100 0.2 1019470
21:00+13св3576100 0.3 1021221
19 апреля, пн
пн1900:00+12ююз1285100 0.8 1021152
03:00+13зюз118485 0.9 102243
06:00+12ссз238599 0.0 1022110
09:00+14ссв2278100 0.0 1023374
12:00+18всв3360100 0.0 10221001
15:00+21всв334693 0.0 10211544
18:00+15вюв81260100 0.0 1022476
21:00+11в6136067 0.0 1022399